Tracking 29892 objects as of 21-Nov-2024
HD Live streaming from Space Station
objects crossing your sky now

METEOR 2-7 DEB

Track METEOR 2-7 DEB now!
10-day predictions


NORAD ID: 43300
Int'l Code: 1981-043X
Perigee: 792.1 km
Apogee: 833.6 km
Inclination: 81.3 °
Period: 101.0 minutes
Semi major axis: 7183 km
RCS: Unknown
Launch date: May 14, 1981
Source: Commonwealth of Independent States (former USSR) (CIS)
Launch site: PLESETSK MISSILE AND SPACE COMPLEX (PKMTR)

Note: This is SATELLITE DEBRIS
Your satellite tracking list
Your tracking list is empty




NASA's NSSDC Master Catalog

Two Line Element Set (TLE):
1 43300U 81043X   24321.12069277  .00009146  00000-0  38218-2 0  9996
2 43300  81.2591 277.3471 0028889 278.5276  81.2630 14.25836742472657
Source of the keplerian elements: AFSPC